Location: Unspecified
(0.0000°N, 0.0000°E)
Time: 10:11:23
(UTC+02:00)

Transit 2A - Visible Passes

Search period start: 01 October 2014 00:00
Search period end: 11 October 2014 00:00
Orbit: 600 x 963 km, 66.7° (Epoch: 29 September)

Date Brightness Start Highest point End Pass type
(mag) Time Alt. Az. Time Alt. Az. Time Alt. Az.
01 Oct 7.1 20:12:41 10° N 20:17:56 32° ENE 20:23:26 10° SE visible
01 Oct 8.6 21:56:21 10° WNW 22:01:00 23° WSW 22:05:49 10° SSW visible
02 Oct 7.9 21:22:00 10° NW 21:27:27 35° WSW 21:33:10 10° S visible
03 Oct 7.1 20:48:03 10° NNW 20:53:55 56° WSW 21:00:07 10° S visible
04 Oct 6.5 20:14:24 10° NNW 20:20:25 87° WSW 20:26:47 10° SSE visible
05 Oct 8.8 07:10:23 10° SSE 07:13:00 15° ESE 07:15:32 10° ENE visible
05 Oct 9.5 21:28:04 10° W 21:30:08 12° WSW 21:32:14 10° SW visible
06 Oct 9.2 20:52:19 10° WNW 20:56:33 19° WSW 21:00:55 10° SSW visible
07 Oct 8.6 20:17:45 10° NW 20:23:00 30° WSW 20:28:27 10° S visible
08 Oct 6.3 07:11:00 10° S 07:15:31 59° ESE 07:19:46 10° NNE visible
09 Oct 7.5 06:37:55 10° S 06:42:00 32° ESE 06:45:53 10° NE visible
10 Oct 8.4 06:05:19 10° SSE 06:08:27 18° ESE 06:11:28 10° ENE visible
